sat.trackr.live / text

‹ back to catalog

STARLINK-34870

NORAD 65370 · 2025-190V

PAYLOAD ACTIVE UNKNOWN

§ Identity

Operator
Country
US
Launch date
2025-08-28
Launch site
AFETR
Launch vehicle
Mass (kg)
RCS (m²)

Purposes: comms

External: N2YO · Heavens-Above · Gunter

§ Orbital elements

Epoch: 2026-05-25T02:14:39.847200Z

Period
94.10 min
Inclination
53.1589°
Eccentricity
0.0001164
Mean motion
15.30213796 rev/d
Perigee alt
474.4 km
Apogee alt
476.0 km
Semi-major
6,853.3 km
B*
1.0079e-3
RAAN
173.2445°
Arg perigee
82.5843°
Mean anomaly
277.5290°
Rev number
4,098

§ Raw data

STARLINK-348701 65370U 25190V   26145.09351675  .00029624  00000+0  10079-2 0  99932 65370  53.1589 173.2445 0001164  82.5843 277.5290 15.30213796 40982

JSON: /api/v1/satellites/65370 · /tle

For live sub-satellite position, see the globe view (requires WebGL).

§ Visibility from observer

Set your observer location to see the next 7 days of passes ≥ 10°. The values pass through the URL so the page stays shareable.

No JS? Fill the form by hand. The geolocation button needs JavaScript.